When you browse on this site, cookies collect data to enhance your experience and personalize the content and advertising you see.
Visit our Privacy Policy to learn more. By continuing to use the site, you agree to this use of cookies and data.
  • In Portugal
  • List of Countries
  • For 7 days
  • Water Temperature
  • Weather Map
  • Weather Widgets
  • user-avatar
    Login

    Hourly Weather Townsville

    Today, 19 November, Tuesday

    Time Temperature Precipitation Wind Pressure Humidity
    00:00 +25°C° 0 mm 3 mps 752 mmHg 89%
    01:00 +25°C° 0 mm 3 mps 752 mmHg 88%
    02:00 +25°C° 0 mm 3 mps 752 mmHg 86%
    03:00 +26°C° 0 mm 3 mps 752 mmHg 84%
    04:00 +26°C° 0 mm 2 mps 752 mmHg 82%
    05:00 +26°C° 0 mm 2 mps 753 mmHg 77%
    06:00 +27°C° 0 mm 2 mps 753 mmHg 72%
    07:00 +28°C° 0 mm 2 mps 753 mmHg 68%
    08:00 +29°C° 0 mm 3 mps 753 mmHg 61%
    09:00 +31°C° 0 mm 3 mps 753 mmHg 55%
    10:00 +33°C° 0 mm 3 mps 753 mmHg 49%
    11:00 +33°C° 0 mm 4 mps 753 mmHg 48%
    12:00 +34°C° 0 mm 4 mps 752 mmHg 47%
    13:00 +34°C° 0 mm 4 mps 751 mmHg 46%
    14:00 +33°C° 0 mm 4 mps 751 mmHg 49%
    15:00 +32°C° 0 mm 4 mps 750 mmHg 51%
    16:00 +32°C° 0 mm 4 mps 750 mmHg 54%
    17:00 +29°C° 0 mm 4 mps 750 mmHg 63%
    18:00 +27°C° 0 mm 4 mps 751 mmHg 72%
    19:00 +26°C° 0 mm 3 mps 751 mmHg 80%
    20:00 +25°C° 0 mm 3 mps 752 mmHg 83%
    21:00 +25°C° 0 mm 3 mps 752 mmHg 86%
    22:00 +25°C° 0 mm 3 mps 753 mmHg 89%
    23:00 +25°C° 0 mm 3 mps 752 mmHg 87%

    Tomorrow, 20 November, Wednesday

    Time Temperature Precipitation Wind Pressure Humidity
    00:00 +25°C° 0 mm 3 mps 752 mmHg 86%
    01:00 +25°C° 0 mm 3 mps 752 mmHg 85%
    02:00 +25°C° 0 mm 3 mps 752 mmHg 85%
    03:00 +25°C° 0 mm 3 mps 751 mmHg 85%
    04:00 +24°C° 0 mm 2 mps 751 mmHg 85%
    05:00 +25°C° 0 mm 2 mps 752 mmHg 79%
    06:00 +26°C° 0 mm 2 mps 752 mmHg 73%
    07:00 +27°C° 0 mm 2 mps 753 mmHg 68%
    08:00 +29°C° 0 mm 2 mps 753 mmHg 60%
    09:00 +30°C° 0 mm 3 mps 753 mmHg 53%
    10:00 +33°C° 0 mm 3 mps 753 mmHg 46%
    11:00 +33°C° 0 mm 3 mps 752 mmHg 45%
    12:00 +34°C° 0 mm 3 mps 751 mmHg 43%
    13:00 +34°C° 0 mm 4 mps 751 mmHg 42%
    14:00 +34°C° 0 mm 3 mps 750 mmHg 43%
    15:00 +33°C° 0 mm 3 mps 750 mmHg 45%
    16:00 +33°C° 0 mm 3 mps 750 mmHg 47%
    17:00 +30°C° 0 mm 3 mps 750 mmHg 56%
    18:00 +28°C° 0 mm 3 mps 751 mmHg 64%
    19:00 +26°C° 0 mm 3 mps 751 mmHg 73%
    20:00 +25°C° 0 mm 3 mps 752 mmHg 77%
    21:00 +25°C° 0 mm 3 mps 752 mmHg 81%
    22:00 +24°C° 0 mm 3 mps 753 mmHg 85%
    23:00 +24°C° 0 mm 3 mps 753 mmHg 86%

    Day after tomorrow, 21 November, Thursday

    Time Temperature Precipitation Wind Pressure Humidity
    00:00 +24°C° 0 mm 3 mps 753 mmHg 86%
    01:00 +24°C° 0 mm 3 mps 752 mmHg 87%
    02:00 +24°C° 0 mm 3 mps 752 mmHg 87%
    03:00 +24°C° 0 mm 2 mps 752 mmHg 86%
    04:00 +23°C° 0 mm 2 mps 752 mmHg 86%
    05:00 +25°C° 0 mm 2 mps 752 mmHg 80%
    06:00 +26°C° 0 mm 2 mps 753 mmHg 74%
    07:00 +27°C° 0 mm 1 mps 753 mmHg 69%
    08:00 +28°C° 0 mm 2 mps 753 mmHg 61%
    09:00 +30°C° 0 mm 3 mps 753 mmHg 53%
    10:00 +33°C° 0 mm 4 mps 753 mmHg 45%
    11:00 +33°C° 0 mm 4 mps 752 mmHg 44%
    12:00 +33°C° 0 mm 4 mps 752 mmHg 44%
    13:00 +33°C° 0 mm 5 mps 752 mmHg 43%
    14:00 +33°C° 0 mm 5 mps 751 mmHg 47%
    15:00 +32°C° 0 mm 5 mps 751 mmHg 50%
    16:00 +30°C° 0 mm 5 mps 751 mmHg 53%
    17:00 +29°C° 0 mm 5 mps 751 mmHg 61%
    18:00 +27°C° 0 mm 5 mps 752 mmHg 69%
    19:00 +25°C° 0 mm 4 mps 752 mmHg 77%
    20:00 +25°C° 0 mm 4 mps 753 mmHg 78%
    21:00 +25°C° 0 mm 4 mps 753 mmHg 79%
    22:00 +23°C° 0 mm 5 mps 754 mmHg 80%
    23:00 +23°C° 0 mm 4 mps 754 mmHg 81%

    22 November, Friday

    Time Temperature Precipitation Wind Pressure Humidity
    00:00 +22°C° 0 mm 4 mps 753 mmHg 82%
    01:00 +22°C° 0 mm 4 mps 753 mmHg 83%
    02:00 +22°C° 0 mm 3 mps 753 mmHg 84%
    03:00 +21°C° 0 mm 3 mps 753 mmHg 84%
    04:00 +21°C° 0 mm 2 mps 753 mmHg 85%
    05:00 +23°C° 0 mm 2 mps 753 mmHg 80%
    06:00 +24°C° 0 mm 2 mps 753 mmHg 75%
    07:00 +25°C° 0 mm 2 mps 753 mmHg 70%
    08:00 +27°C° 0 mm 3 mps 753 mmHg 64%
    09:00 +29°C° 0 mm 3 mps 753 mmHg 58%
    10:00 +32°C° 0 mm 4 mps 753 mmHg 51%
    11:00 +32°C° 0 mm 5 mps 753 mmHg 51%
    12:00 +33°C° 0 mm 5 mps 752 mmHg 51%
    13:00 +33°C° 0 mm 6 mps 752 mmHg 51%
    14:00 +32°C° 0 mm 6 mps 752 mmHg 54%
    15:00 +32°C° 0 mm 5 mps 751 mmHg 57%
    16:00 +30°C° 0 mm 5 mps 751 mmHg 60%
    17:00 +28°C° 0 mm 5 mps 751 mmHg 66%
    18:00 +27°C° 0 mm 5 mps 752 mmHg 72%
    19:00 +26°C° 0 mm 4 mps 752 mmHg 78%
    20:00 +25°C° 0 mm 4 mps 753 mmHg 80%
    21:00 +25°C° 0 mm 4 mps 753 mmHg 83%
    22:00 +23°C° 0 mm 4 mps 753 mmHg 85%
    23:00 +23°C° 0.1 mm 4 mps 753 mmHg 87%

    23 November, Saturday

    Time Temperature Precipitation Wind Pressure Humidity
    00:00 +24°C° 0.1 mm 3 mps 753 mmHg 89%
    01:00 +24°C° 0.1 mm 3 mps 753 mmHg 90%
    02:00 +22°C° 0.1 mm 3 mps 752 mmHg 91%
    03:00 +22°C° 0.1 mm 3 mps 752 mmHg 91%
    04:00 +22°C° 0.1 mm 3 mps 752 mmHg 92%
    05:00 +22°C° 0.1 mm 3 mps 752 mmHg 88%
    06:00 +24°C° 0.1 mm 3 mps 753 mmHg 84%
    07:00 +25°C° 0.1 mm 3 mps 753 mmHg 80%
    08:00 +27°C° 0.1 mm 3 mps 753 mmHg 69%
    09:00 +29°C° 0.1 mm 4 mps 753 mmHg 58%
    10:00 +32°C° 0.1 mm 4 mps 753 mmHg 47%
    11:00 +32°C° 0 mm 5 mps 752 mmHg 46%
    12:00 +33°C° 0 mm 5 mps 752 mmHg 46%
    13:00 +33°C° 0 mm 5 mps 751 mmHg 46%
    14:00 +32°C° 0 mm 5 mps 751 mmHg 47%
    15:00 +32°C° 0 mm 5 mps 750 mmHg 49%
    16:00 +30°C° 0 mm 5 mps 750 mmHg 51%
    17:00 +29°C° 0 mm 5 mps 750 mmHg 59%
    18:00 +27°C° 0 mm 4 mps 751 mmHg 67%
    19:00 +25°C° 0 mm 4 mps 751 mmHg 75%
    20:00 +25°C° 0 mm 4 mps 752 mmHg 78%
    21:00 +25°C° 0 mm 4 mps 752 mmHg 82%
    22:00 +25°C° 0 mm 4 mps 753 mmHg 86%
    23:00 +23°C° 0.1 mm 4 mps 752 mmHg 87%

    24 November, Sunday

    Time Temperature Precipitation Wind Pressure Humidity
    00:00 +23°C° 0.1 mm 4 mps 752 mmHg 88%
    01:00 +24°C° 0.1 mm 3 mps 752 mmHg 90%
    02:00 +24°C° 0 mm 3 mps 752 mmHg 90%
    03:00 +22°C° 0 mm 3 mps 752 mmHg 90%
    04:00 +23°C° 0 mm 2 mps 751 mmHg 89%
    05:00 +24°C° 0 mm 3 mps 752 mmHg 85%
    06:00 +25°C° 0 mm 3 mps 752 mmHg 80%
    07:00 +26°C° 0 mm 3 mps 752 mmHg 76%
    08:00 +28°C° 0 mm 3 mps 752 mmHg 67%
    09:00 +29°C° 0 mm 3 mps 752 mmHg 58%
    10:00 +32°C° 0 mm 4 mps 752 mmHg 49%
    11:00 +32°C° 0 mm 4 mps 752 mmHg 47%
    12:00 +33°C° 0 mm 4 mps 751 mmHg 45%
    13:00 +33°C° 0 mm 4 mps 751 mmHg 44%
    14:00 +33°C° 0 mm 5 mps 751 mmHg 46%
    15:00 +32°C° 0 mm 5 mps 750 mmHg 48%
    16:00 +30°C° 0 mm 5 mps 750 mmHg 51%
    17:00 +29°C° 0 mm 5 mps 750 mmHg 60%
    18:00 +27°C° 0 mm 4 mps 751 mmHg 69%
    19:00 +26°C° 0 mm 4 mps 751 mmHg 79%
    20:00 +25°C° 0 mm 4 mps 752 mmHg 81%
    21:00 +25°C° 0 mm 4 mps 752 mmHg 84%
    22:00 +25°C° 0 mm 3 mps 753 mmHg 87%
    23:00 +25°C° 0 mm 3 mps 752 mmHg 88%
    Show more